Погода в Садовом

Россия / Волгоградская область     49°40′38″N   45°55′27″E
темп.,
°C
ветер,
м/с
пор.,
м/с
влажн.,
%
обл.,
%
осадки,
мм/ч
давл.,
гПа
погр.,
м
22 апреля, чт
чт2200:00+9ю359274 0.0 102180
03:00+9юз338794 0.0 102123
06:00+10юз1279100 0.0 102214
09:00+15ююз115888 0.0 1023539
12:00+18ююз224319 0.0 10221863
15:00+19юз233833 0.0 10222131
18:00+17з3448100 0.0 1022111
21:00+14с3558100 0.0 1023119
23 апреля, пт
пт2300:00+12всв357087 0.0 102287
03:00+11вюв3475100 0.0 102269
06:00+11в4677100 0.0 1022244
09:00+12в3465100 0.0 1022458
12:00+16св455197 0.0 10211178
15:00+17св454785 0.0 10191702
18:00+15всв355896 0.0 1018227
21:00+11юв227091 0.0 101816
24 апреля, сб
сб2400:00+12с117017 0.0 101722
03:00+9в22796 0.0 101611
06:00+10ю2276100 0.0 101694
09:00+14юз4562100 0.0 1016833
12:00+17зюз685151 0.5 10141608
15:00+16юз895160 0.6 10131823
18:00+15юз6105891 0.1 1013716
21:00+11з61179100 0.5 1014703
25 апреля, вс
вс2500:00+8зюз510750 0.0 1015320
03:00+7юз510825 0.0 1016247
06:00+7юз497770 0.0 1017338
09:00+10зюз78577 0.0 10181538
12:00+12з684324 0.0 10181896
15:00+14з6739100 0.0 10182121
18:00+12зсз5649100 0.0 1019606
21:00+8зсз3459100 0.0 102071
26 апреля, пн
пн2600:00+8сз2258100 0.0 102036
03:00+7ссв2260100 0.0 102023
06:00+8св2363100 0.0 1019116
09:00+12всв3346100 0.0 10191100
12:00+13в3338100 0.0 10181868
15:00+14вюв2237100 0.0 10161935
18:00+13ююз2349100 0.0 1015185
21:00+9юз4663100 0.0 1015112